User: anonymous   Login
Location: Unspecified
(0.0000°N, 0.0000°E)
Time: 04:07:37
(UTC+00:00)
Language:

USA 187 - Orbit

View from above orbital plane
View from above orbital plane
View from above satellite
View from above satellite

Ground track
Ground track

The orbit data is extracted from the following two-line orbital elements,

1 29240U 06024A   18006.40136457 0.00000000  00000-0  00000-0 0    07
2 29240   1.2079  76.4779 0017763 187.8832 172.1018  0.98611925    00
Epoch (UTC): 06 January 2018 09:37:57
Eccentricity: 0.0017763
inclination: 1.2079°
perigee height: 36182 km
apogee height: 36334 km
right ascension of ascending node: 76.4779°
argument of perigee: 187.8832°
revolutions per day: 0.98611925
mean anomaly at epoch: 172.1018°
orbit number at epoch: 0

The dashed part of the orbit path shows where the satellite is in the earth's shadow,  

DLR